Vertical_Velocity
2 3 2 -1 -2 5 -1 1 0 -1 -9 -15 5 28 3 9 5 0 -12 -3 -5 1 -5 -1 -7 -2 -3 -4 -5 -3 -1 5 3 -5 -4 -3 -2 -1 -6 6 11 8 11
3 9 -0 -4 2 1 2 -1 1 -1 9 13 8 -2 9 -6 -8 -4 -4 -10 -8 5 1 -0 1 -1 3 8 6 1 -1 -2 6 -5 4 1 6 8 8 9 -1 3 3
21 11 6 3 -4 -0 8 2 -0 3 3 5 5 2 -9 3 -3 -10 -0 -1 -4 2 4 1 0 -0 -1 1 2 3 4 4 5 6 -9 5 3 10 2 -2 -1 -4 -4
4 2 0 7 4 -1 -0 4 4 5 6 6 -0 -8 2 -2 -9 3 -4 4 5 1 -1 1 -3 -3 -3 -2 -1 -1 2 1 1 -0 -1 -5 1 -5 2 -2 -16 5 -5
-6 -1 6 3 1 11 2 -1 -13 -3 3 -3 -0 -1 5 -2 -1 -3 13 -1 -3 -4 -4 -3 -3 3 7 7 6 -2 -1 -3 -1 -4 -6 -4 -5 -9 -0 -6 5 -8 0
3 6 3 6 1 -9 2 1 -1 1 -1 -2 -1 -3 -1 -2 9 5 2 2 1 -0 -1 -2 -0 -3 -3 0 4 3 7 7 6 9 3 -5 -11 -3 -1 2 1 9 -9
11 5 -1 -1 -2 13 3 0 -4 -4 0 2 0 4 3 6 1 -0 1 1 -4 -2 -1 -1 -0 -1 -0 0 -0 1 1 2 7 10 4 6 -1 1 5 -2 -0 3 3
-4 -4 -2 -5 2 4 2 -1 -1 -0 0 -2 1 7 2 4 3 0 -1 -1 1 0 -0 -1 -1 -2 0 -0 -3 -4 -2 1 9 6 3 -4 8 -6 8 1 -2 -3 -1
-4 -3 0 4 4 4 3 -1 1 -3 1 4 -1 -2 2 -0 -3 -3 -1 -2 -1 -2 -1 1 1 -2 0 2 -2 -6 -5 -6 -2 4 5 3 -4 3 7 5 -0 3 -6
-1 1 2 2 -2 -0 1 -2 -2 5 0 3 10 2 1 -2 -2 -6 -1 -2 -1 -2 -1 -1 1 2 1 1 -1 -2 -8 -8 -7 -8 -3 -9 6 4 5 0 4 -4 2
4 2 -1 2 1 -2 -1 4 1 1 1 -4 1 2 5 5 -1 -3 1 2 -0 -3 -2 -4 -2 -1 -1 -1 3 0 -1 0 -2 -1 -4 -4 -4 -4 9 -3 1 -5 -0
-5 -0 3 -1 -0 -1 0 -3 2 2 3 -2 2 1 -1 2 -2 -4 -2 -1 -1 -3 -2 -2 -3 -1 -0 -0 -0 2 6 5 -0 -0 0 -6 -1 -3 -4 4 3 -1 -2
2 4 5 0 1 0 4 4 2 3 3 -5 -2 -1 -0 2 1 -4 -4 -1 0 -2 -1 -2 -2 -1 -0 -1 1 -0 0 -0 -0 -1 -4 -4 0 -1 3 0 -4 2 1
-1 -0 -0 1 2 2 1 1 -1 -2 -3 -1 -2 -1 -0 2 -4 -0 1 -1 -1 -2 -2 -2 -3 -2 1 1 -1 2 -0 -0 3 -2 -2 -2 0 5 -1 1 6 4 1
5 3 3 9 3 -0 2 -2 -2 1 -0 -1 -2 -0 -1 -1 -4 -0 -3 -3 -3 -3 -5 -4 -3 1 -6 -7 -6 -4 -3 -0 -5 34 6 -3 -1 3 0 3 0 -1 2
8 6 1 1 2 1 1 1 -1 1 1 2 1 1 -2 -1 1 -1 -2 -1 0 -1 -2 -3 2 1 -4 -6 -5 -2 -0 -1 0 -1 -4 42 -1 3 3 4 1 -2 -2
-1 1 1 2 0 1 3 1 -2 -0 -3 -3 -2 -3 -2 -0 -1 -1 -1 -2 -0 -1 -3 1 1 -1 -0 -2 -2 -2 -3 -1 1 2 -1 -2 10 1 4 0 1 2 1
0 -3 -3 -3 1 -1 -3 -1 1 1 0 -0 -2 -1 -3 -3 -2 -0 -2 -2 -3 -1 0 2 1 -1 -1 -1 -2 -3 -2 -2 -1 -0 1 2 4 4 8 8 10 -1 1
4 -1 -1 -3 -3 0 -0 -0 -1 1 1 -0 -0 2 4 1 -3 -2 -1 3 1 -3 -1 -0 -2 -2 -2 -2 -4 -2 1 0 -2 -2 -0 -1 -2 0 2 15 4 -2 3
-1 -0 -1 -1 -1 1 -0 -1 0 2 1 0 -0 2 -2 1 -2 -3 -0 3 2 0 -0 -2 -1 -1 -1 1 0 -1 -1 -2 -1 -2 -1 1 -2 1 2 2 1 14 1
-3 0 1 -1 -2 -1 -1 -2 -1 -1 -0 1 0 -0 -0 -1 -4 -5 3 1 2 2 -1 -3 1 1 -1 -1 1 -1 -0 -1 -1 -1 0 -1 -1 -3 3 3 2 26 0
1 -2 -2 -1 -0 -2 -2 0 0 -1 -1 1 0 -0 1 2 2 2 0 -0 0 1 -1 -1 -1 -1 0 1 -1 -1 -0 -2 -0 0 -2 -1 -1 -0 0 -0 -0 1 25
-1 1 -0 -1 -1 -3 -1 -0 -0 -1 0 -0 -2 -2 -2 0 1 -0 -0 -0 -2 1 0 -1 -1 -1 -1 0 -0 1 0 0 -1 -1 -2 -2 -1 -1 1 -1 -0 -0 3
-2 -2 -2 -1 -0 -1 -1 0 -2 -1 3 1 -1 -1 1 -0 -1 -1 -1 2 0 -1 -0 -1 -1 -1 0 -1 1 1 0 -0 1 1 -1 -1 -2 -1 -1 -0 -0 3 4
-2 -1 -1 -1 -0 0 0 1 2 1 1 -1 -1 0 -2 -3 -1 -0 -0 -1 -1 -1 -2 -2 1 0 -0 -1 -0 1 0 1 1 2 -0 -0 -1 -1 -1 0 2 0 0
-1 -0 -1 -1 0 -1 0 -0 0 -0 0 -1 -1 -2 -2 0 -1 -1 -1 -1 -1 -2 -2 -1 -1 0 1 -0 -1 -0 1 2 1 2 2 -0 -2 -1 -0 -1 1 -1 -0
Height
1477 1479 1481 1483 1488 1491 1494 1496 1499 1502 1505 1508 1509 1506 1510 1514 1518 1522 1523 1526 1528 1528 1530 1530 1530 1531 1531 1530 1528 1527 1525 1523 1518 1514 1515 1514 1512 1510 1509 1507 1504 1501 1499
1472 1474 1474 1479 1482 1485 1486 1490 1492 1496 1497 1500 1500 1507 1511 1514 1517 1518 1519 1518 1521 1523 1524 1525 1525 1526 1526 1524 1522 1520 1518 1517 1515 1508 1507 1506 1504 1503 1501 1498 1496 1494 1491
1467 1468 1467 1470 1474 1477 1482 1486 1488 1490 1493 1497 1500 1502 1506 1509 1511 1514 1515 1516 1517 1519 1519 1520 1520 1520 1519 1518 1516 1514 1512 1511 1509 1504 1499 1498 1497 1496 1492 1490 1488 1485 1483
1460 1460 1462 1464 1468 1472 1476 1480 1485 1488 1491 1495 1497 1501 1503 1504 1507 1509 1511 1513 1515 1514 1514 1514 1514 1514 1512 1511 1509 1507 1505 1503 1500 1496 1492 1490 1490 1487 1484 1482 1479 1477 1475
1453 1454 1455 1459 1463 1468 1473 1477 1481 1486 1490 1493 1495 1497 1500 1502 1503 1505 1508 1508 1508 1508 1508 1508 1508 1508 1506 1504 1502 1499 1498 1494 1491 1488 1484 1482 1480 1478 1477 1474 1472 1469 1468
1447 1451 1455 1457 1460 1464 1471 1473 1477 1481 1486 1489 1491 1494 1496 1497 1500 1501 1502 1502 1503 1503 1502 1502 1501 1500 1498 1497 1495 1492 1490 1486 1482 1479 1475 1472 1470 1470 1469 1467 1465 1462 1461
1444 1447 1451 1456 1459 1462 1463 1470 1475 1480 1484 1486 1488 1491 1494 1495 1495 1495 1496 1496 1496 1496 1495 1494 1493 1493 1492 1489 1486 1482 1478 1476 1474 1471 1466 1463 1461 1462 1461 1459 1458 1458 1456
1444 1448 1450 1453 1458 1461 1464 1469 1473 1477 1481 1484 1487 1490 1490 1491 1491 1491 1491 1490 1490 1489 1488 1487 1485 1484 1483 1480 1475 1470 1467 1466 1463 1461 1457 1455 1453 1452 1452 1451 1450 1449 1449
1443 1446 1450 1453 1457 1461 1464 1469 1474 1478 1481 1483 1484 1486 1487 1485 1485 1486 1485 1484 1482 1481 1480 1479 1477 1474 1472 1470 1466 1461 1456 1453 1452 1450 1448 1446 1443 1442 1443 1444 1443 1444 1442
1442 1446 1450 1453 1457 1461 1466 1470 1473 1476 1478 1479 1481 1480 1480 1478 1478 1478 1478 1476 1475 1473 1472 1470 1469 1467 1463 1460 1457 1453 1448 1444 1441 1438 1437 1435 1435 1433 1433 1435 1436 1436 1436
1444 1447 1450 1456 1459 1463 1467 1470 1472 1473 1474 1474 1475 1476 1476 1476 1472 1472 1472 1469 1467 1466 1464 1462 1460 1458 1455 1451 1449 1446 1442 1437 1432 1430 1428 1426 1425 1425 1425 1426 1427 1429 1429
1444 1448 1452 1455 1459 1462 1464 1466 1468 1469 1470 1471 1472 1472 1472 1471 1467 1467 1465 1464 1462 1459 1458 1456 1453 1450 1447 1444 1441 1438 1434 1430 1426 1423 1420 1418 1417 1417 1417 1419 1418 1420 1421
1446 1449 1452 1454 1457 1459 1461 1462 1465 1466 1466 1466 1467 1468 1467 1466 1464 1461 1460 1460 1458 1455 1453 1449 1446 1444 1440 1437 1434 1430 1427 1423 1420 1416 1413 1412 1412 1412 1411 1412 1413 1414 1415
1445 1447 1450 1453 1454 1457 1457 1458 1460 1461 1461 1462 1463 1464 1462 1461 1459 1457 1456 1454 1451 1449 1446 1443 1440 1437 1434 1431 1427 1424 1421 1418 1414 1410 1407 1406 1406 1406 1406 1406 1407 1409 1409
1443 1446 1448 1450 1451 1452 1452 1453 1455 1457 1458 1459 1458 1459 1458 1457 1454 1453 1450 1448 1445 1443 1439 1437 1435 1432 1428 1424 1421 1419 1416 1413 1409 1405 1402 1401 1401 1401 1400 1401 1402 1403 1403
1443 1444 1445 1447 1449 1450 1451 1452 1453 1454 1454 1454 1453 1453 1452 1452 1450 1448 1445 1443 1440 1437 1434 1432 1431 1428 1425 1421 1418 1414 1412 1408 1404 1401 1398 1394 1394 1395 1395 1396 1396 1397 1397
1443 1445 1447 1448 1449 1450 1451 1451 1451 1451 1450 1449 1449 1448 1448 1447 1444 1442 1440 1437 1435 1433 1431 1430 1427 1425 1422 1419 1416 1412 1408 1405 1401 1397 1394 1391 1389 1388 1388 1389 1390 1391 1391
1443 1444 1446 1447 1447 1447 1448 1449 1449 1449 1447 1446 1444 1444 1441 1439 1438 1437 1435 1432 1430 1428 1427 1425 1422 1419 1417 1414 1411 1408 1404 1400 1397 1393 1390 1387 1384 1382 1382 1382 1382 1384 1385
1443 1444 1445 1446 1446 1445 1445 1444 1444 1443 1442 1441 1441 1441 1440 1435 1433 1434 1431 1429 1426 1424 1422 1420 1417 1415 1413 1410 1408 1405 1402 1397 1393 1389 1386 1384 1381 1379 1377 1378 1377 1377 1379
1441 1441 1442 1443 1443 1442 1441 1440 1440 1440 1438 1438 1437 1437 1435 1433 1429 1427 1426 1425 1422 1420 1417 1415 1413 1411 1409 1406 1403 1400 1397 1393 1389 1386 1383 1380 1377 1375 1373 1372 1371 1371 1372
1440 1441 1440 1441 1440 1438 1438 1437 1436 1435 1435 1434 1433 1431 1429 1427 1425 1423 1421 1420 1418 1415 1412 1410 1409 1406 1403 1401 1398 1395 1392 1389 1386 1383 1380 1376 1373 1370 1369 1367 1367 1366 1368
1440 1440 1439 1438 1437 1435 1434 1434 1433 1431 1430 1429 1428 1427 1425 1423 1421 1419 1417 1415 1413 1410 1408 1405 1403 1401 1398 1395 1392 1389 1387 1384 1381 1379 1375 1371 1369 1367 1365 1363 1363 1362 1364
1438 1437 1436 1435 1433 1432 1431 1430 1428 1427 1426 1424 1423 1421 1420 1418 1416 1414 1412 1409 1407 1405 1402 1399 1396 1394 1392 1389 1387 1385 1382 1379 1376 1373 1369 1366 1364 1362 1361 1359 1358 1358 1359
1436 1434 1433 1432 1431 1429 1428 1427 1425 1424 1423 1421 1419 1417 1415 1413 1411 1409 1406 1404 1401 1398 1396 1393 1390 1388 1385 1383 1381 1379 1376 1373 1370 1368 1365 1361 1359 1357 1356 1355 1354 1354 1355
1433 1432 1431 1430 1429 1427 1425 1424 1422 1421 1419 1417 1415 1412 1410 1408 1406 1403 1400 1398 1395 1392 1390 1387 1385 1382 1380 1377 1375 1373 1370 1368 1365 1362 1359 1356 1353 1352 1351 1350 1349 1349 1351
1431 1430 1428 1427 1426 1424 1422 1420 1418 1416 1414 1412 1410 1407 1405 1403 1400 1398 1395 1392 1389 1386 1383 1381 1378 1376 1373 1370 1368 1366 1364 1361 1358 1355 1352 1349 1347 1346 1346 1345 1345 1345 1346